Change the Weather History Date:

Sunday, March 2, 2014

  Actual Average Record
Temperature  
Mean Temperature 12 °F -  
Max Temperature 17 °F 28 °F 46 °F (2004)
Min Temperature 5 °F 14 °F 3 °F (2001)
Degree Days  
Heating Degree Days 54    
Moisture  
Dew Point 4 °F    
Average Humidity 61    
Maximum Humidity 93    
Minimum Humidity 28    
Precipitation  
Precipitation 0.02 in - - ()
Sea Level Pressure  
Sea Level Pressure 30.14 in    
Wind  
Wind Speed 9 mph ()    
Max Wind Speed 18 mph    
Max Gust Speed 22 mph    
Visibility 12.1 miles    
Events Snow    
Averages and records for this station are not official NWS values.
T = Trace of Precipitation, MM = Missing Value Source: Averaged Metar Reports

Daily Weather History Graph

Daily Weather History Graph

Search for Another Location

Airport or City:

Trip Planner

Search our weather history database for the weather conditions in past years. The results will help you decide how hot, cold, wet, or windy it might be!

Date:

Astronomy

Mar. 02, 2014 Rise Set
Actual Time 6:31 AM EST 5:43 PM EST
Civil Twilight 6:01 AM EST 6:13 PM EST
Nautical Twilight 5:27 AM EST 6:47 PM EST
Astronomical Twilight 4:53 AM EST 7:21 PM EST
Moon 6:55 AM EST (3/2) 7:44 PM EST (3/2)
Length of Visible Light 12h 11m
Length of Day
11h 11m
Waxing Crescent, 3% of the Moon is Illuminated
Mar 2
Waxing Crescent
Mar 8
First Quarter
Mar 16
Full
Mar 23
Last Quarter
Mar 30
New

Hourly Weather History & Observations

Time (EST) Temp. Windchill Dew Point Humidity Pressure Visibility Wind Dir Wind Speed Gust Speed Precip Events Conditions
12:00 AM 24.8 °F 11.9 °F 21.2 °F 86% 30.02 in 2.0 mi West 16.1 mph - N/A Snow Light Snow
12:40 AM 23.0 °F 11.1 °F 21.2 °F 93% 30.04 in 2.0 mi West 12.7 mph - N/A Snow Light Snow
1:00 AM 22 °F - 18 °F 80% 30.05 in 3 mi WNW 15.0 mph - - Snow Light Snow
1:00 AM 21.2 °F 7.8 °F 17.6 °F 86% 30.05 in 3.0 mi NW 15.0 mph 21.9 mph N/A Snow Light Snow
1:07 AM 21.2 °F 7.3 °F 15.8 °F 80% 30.06 in 6.0 mi NW 16.1 mph - N/A Snow Light Snow
2:00 AM 19.4 °F 7.2 °F 15.8 °F 86% 30.09 in 5.0 mi NW 11.5 mph - N/A Snow Light Snow
3:00 AM 15.8 °F 2.1 °F 12.2 °F 86% 30.11 in 6.0 mi North 12.7 mph 19.6 mph N/A Snow Light Snow
4:00 AM 15.8 °F 5.1 °F 8.6 °F 73% 30.13 in 10.0 mi NNW 8.1 mph - N/A Snow Light Snow
4:42 AM 15.8 °F 8.6 °F 8.6 °F 73% 30.15 in 15.0 mi NNW 4.6 mph - N/A   Overcast
5:00 AM 15.8 °F - 6.8 °F 68% 30.15 in 15.0 mi NNW 2.3 mph - N/A   Overcast
6:00 AM 14.0 °F 8.2 °F 8.6 °F 79% 30.16 in 15.0 mi West 3.5 mph - N/A   Mostly Cloudy
7:00 AM 15 °F - 3 °F 44% 30.19 in 15 mi NW 6.9 mph - -   Partly Cloudy
7:00 AM 14.0 °F 3.9 °F 3.2 °F 62% 30.19 in 15.0 mi NW 6.9 mph - N/A   Overcast
8:00 AM 14.0 °F 0.5 °F 3.2 °F 62% 30.22 in 15.0 mi North 11.5 mph - N/A   Overcast
9:00 AM 12.2 °F -1.8 °F 1.4 °F 62% 30.22 in 15.0 mi North 11.5 mph - N/A   Overcast
10:00 AM 12.2 °F 1.7 °F -0.4 °F 57% 30.22 in 15.0 mi NNE 6.9 mph - N/A   Mostly Cloudy
11:00 AM 14.0 °F 3.9 °F -0.4 °F 53% 30.22 in 15.0 mi NE 6.9 mph - N/A   Mostly Cloudy
12:00 PM 14.0 °F - -4.0 °F 45% 30.19 in 15.0 mi Variable 2.3 mph - N/A   Partly Cloudy
1:00 PM 15 °F - -3 °F 28% 30.16 in 15 mi SSW 3.5 mph - -   Mostly Cloudy
1:00 PM 14.0 °F 6.5 °F -4.0 °F 45% 30.16 in 15.0 mi SSW 4.6 mph - N/A   Mostly Cloudy
2:00 PM 15.8 °F 8.6 °F -2.2 °F 45% 30.14 in 15.0 mi WSW 4.6 mph - N/A   Mostly Cloudy
3:00 PM 15.8 °F 2.1 °F 1.4 °F 53% 30.14 in 15.0 mi South 12.7 mph - N/A   Partly Cloudy
4:00 PM 15.8 °F 1.4 °F -4.0 °F 41% 30.13 in 15.0 mi SW 13.8 mph 20.7 mph N/A   Partly Cloudy
5:00 PM 14.0 °F -3.0 °F -2.2 °F 49% 30.13 in 30.0 mi WSW 18.4 mph - N/A   Partly Cloudy
6:00 PM 12.2 °F 0.7 °F -4.0 °F 48% 30.13 in 30.0 mi WSW 8.1 mph - N/A   Partly Cloudy
7:00 PM 11 °F - -5 °F 33% 30.13 in 15 mi WSW 10.4 mph - -   Scattered Clouds
7:00 PM 10.4 °F -3.3 °F -4.0 °F 52% 30.13 in 15.0 mi WSW 10.4 mph - N/A   Partly Cloudy
8:00 PM 10.4 °F -4.1 °F -5.8 °F 48% 30.13 in 15.0 mi West 11.5 mph - N/A   Partly Cloudy
9:00 PM 8.6 °F -2.6 °F -5.8 °F 52% 30.12 in 15.0 mi WNW 6.9 mph - N/A   Partly Cloudy
10:00 PM 6.8 °F -3.5 °F -5.8 °F 56% 30.13 in 15.0 mi WSW 5.8 mph - N/A   Partly Cloudy
11:00 PM 5.0 °F -5.6 °F -5.8 °F 61% 30.12 in 15.0 mi SW 5.8 mph - N/A   Partly Cloudy